Location: Four Corners
(38.2757°N, 122.4608°W)
Time: 04:31:21
(UTC+00:00)

Cosmos 407 Rocket - Pass Details

Date: 08 December 2019
Orbit: 743 x 787 km, 74.0° (Epoch: 22 January)

Event Time Altitude Azimuth Distance (km) Brightness Sun altitude
Rises 02:16:28 0° 178° (S) 3,177 6.9 -16.6°
Reaches altitude 10° 02:18:54 10° 171° (S) 2,262 6.0 -17.1°
Maximum altitude 02:23:41 41° 102° (ESE) 1,084 3.8 -18.0°
Enters shadow 02:25:14 33° 62° (ENE) 1,266 4.1 -18.3°
